| time (UTC) | temp F | wind direction | speed knots | gust knots | rain 1hr in | rain 24hr in | rain mn in | humidity % | barometer mb |
| 20260507085035 | 54 | 16 | 0.9 | 3.5 | 0.00 | 0.00 | 0.00 | 72 | 1021.3 |
| 20260507084534 | 54 | 347 | 0.9 | 3.5 | 0.00 | 0.00 | 0.00 | 72 | 1021.3 |
| 20260507084037 | 54 | 286 | 0.9 | 4.3 | 0.00 | 0.00 | 0.00 | 72 | 1021.3 |
| 20260507083535 | 54 | 238 | 0.0 | 4.3 | 0.00 | 0.00 | 0.00 | 72 | 1021.3 |
| 20260507083047 | 54 | 325 | 1.7 | 5.2 | 0.00 | 0.00 | 0.00 | 72 | 1021.3 |
| 20260507082536 | 54 | 0 | 0.9 | 5.2 | 0.00 | 0.00 | 0.00 | 72 | 1021.4 |
| 20260507082036 | 54 | 360 | 0.9 | 3.5 | 0.00 | 0.00 | 0.00 | 72 | 1021.4 |
| 20260507081542 | 54 | 39 | 0.9 | 3.5 | 0.00 | 0.00 | 0.00 | 72 | 1021.4 |
| 20260507081035 | 54 | 0 | 0.9 | 4.3 | 0.00 | 0.00 | 0.00 | 73 | 1021.4 |
| 20260507080538 | 54 | 301 | 1.7 | 4.3 | 0.00 | 0.00 | 0.00 | 73 | 1021.4 |
| 20260507080040 | 54 | 25 | 0.9 | 3.5 | 0.00 | 0.00 | 0.00 | 73 | 1021.3 |
| 20260507075535 | 54 | 9 | 0.9 | 3.5 | 0.00 | 0.00 | 0.00 | 73 | 1021.3 |
| 20260507075035 | 54 | 0 | 0.0 | 3.5 | 0.00 | 0.00 | 0.00 | 74 | 1021.4 |
| 20260507074555 | 54 | 338 | 0.9 | 3.5 | 0.00 | 0.00 | 0.00 | 74 | 1021.4 |
| 20260507074035 | 55 | 314 | 0.9 | 3.5 | 0.00 | 0.00 | 0.00 | 74 | 1021.4 |
| 20260507073534 | 55 | 216 | 0.0 | 5.2 | 0.00 | 0.00 | 0.00 | 74 | 1021.4 |
| 20260507073039 | 55 | 317 | 0.9 | 5.2 | 0.00 | 0.00 | 0.00 | 74 | 1021.3 |
| 20260507072537 | 55 | 352 | 0.9 | 2.6 | 0.00 | 0.00 | 0.00 | 74 | 1021.3 |
| 20260507072035 | 55 | 242 | 0.9 | 2.6 | 0.00 | 0.00 | 0.00 | 75 | 1021.3 |
| 20260507071546 | 55 | 351 | 0.9 | 1.7 | 0.00 | 0.00 | 0.00 | 75 | 1021.3 |
| 20260507071038 | 54 | 281 | 0.0 | 5.2 | 0.00 | 0.00 | 0.00 | 75 | 1021.2 |
| 20260507070535 | 54 | 319 | 1.7 | 5.2 | 0.00 | 0.00 | 0.00 | 75 | 1021.1 |
| 20260507070049 | 54 | 5 | 0.9 | 4.3 | 0.00 | 0.00 | 0.00 | 75 | 1021.1 |
| 20260507065535 | 54 | 0 | 0.9 | 4.3 | 0.00 | 0.00 | 0.00 | 75 | 1021.1 |
| 20260507065035 | 54 | 324 | 0.9 | 3.5 | 0.00 | 0.00 | 0.00 | 75 | 1021.1 |
| 20260507064550 | 54 | 336 | 0.9 | 3.5 | 0.00 | 0.00 | 0.00 | 74 | 1021.1 |
| 20260507064035 | 55 | 19 | 1.7 | 3.5 | 0.00 | 0.00 | 0.00 | 74 | 1021.1 |
| 20260507063534 | 55 | 320 | 0.0 | 3.5 | 0.00 | 0.00 | 0.00 | 74 | 1021.1 |
| 20260507063038 | 55 | 22 | 0.9 | 3.5 | 0.00 | 0.00 | 0.00 | 74 | 1021.2 |
| 20260507062535 | 55 | 266 | 1.7 | 4.3 | 0.00 | 0.00 | 0.00 | 74 | 1021.2 |
| 20260507062035 | 55 | 259 | 0.9 | 4.3 | 0.00 | 0.00 | 0.00 | 75 | 1021.1 |
| 20260507061539 | 55 | 360 | 0.0 | 4.3 | 0.00 | 0.00 | 0.00 | 75 | 1021.3 |
| 20260507061035 | 55 | 332 | 0.9 | 4.3 | 0.00 | 0.00 | 0.00 | 75 | 1021.3 |
| 20260507060535 | 55 | 323 | 0.9 | 3.5 | 0.00 | 0.00 | 0.00 | 75 | 1021.3 |
| 20260507060039 | 55 | 320 | 0.9 | 5.2 | 0.00 | 0.00 | 0.00 | 75 | 1021.3 |
| 20260507055535 | 55 | 327 | 0.9 | 5.2 | 0.00 | 0.00 | 0.00 | 75 | 1021.3 |
| 20260507055036 | 55 | 15 | 1.7 | 5.2 | 0.00 | 0.00 | 0.00 | 75 | 1021.3 |
| 20260507054545 | 55 | 83 | 0.9 | 5.2 | 0.00 | 0.00 | 0.00 | 75 | 1021.2 |
| 20260507054039 | 55 | 331 | 1.7 | 4.3 | 0.00 | 0.00 | 0.00 | 76 | 1021.3 |
| 20260507053536 | 55 | 329 | 1.7 | 4.3 | 0.00 | 0.00 | 0.00 | 75 | 1021.3 |
| 20260507053045 | 55 | 336 | 0.9 | 4.3 | 0.00 | 0.00 | 0.00 | 76 | 1021.3 |
| 20260507052535 | 55 | 360 | 0.9 | 3.5 | 0.00 | 0.00 | 0.00 | 75 | 1021.3 |
| 20260507052035 | 55 | 350 | 0.9 | 7.0 | 0.00 | 0.00 | 0.00 | 75 | 1021.1 |
| 20260507051544 | 55 | 331 | 1.7 | 8.7 | 0.00 | 0.00 | 0.00 | 75 | 1021.2 |
| 20260507051034 | 55 | 5 | 1.7 | 8.7 | 0.00 | 0.00 | 0.00 | 75 | 1021.2 |
| 20260507050534 | 55 | 326 | 0.9 | 7.0 | 0.00 | 0.00 | 0.00 | 74 | 1021.2 |
| 20260507050043 | 56 | 352 | 2.6 | 8.7 | 0.00 | 0.00 | 0.00 | 74 | 1021.2 |
| 20260507045535 | 56 | 19 | 3.5 | 8.7 | 0.00 | 0.00 | 0.00 | 74 | 1021.3 |
| 20260507045035 | 56 | 20 | 1.7 | 7.0 | 0.00 | 0.00 | 0.00 | 74 | 1021.3 |
| 20260507044539 | 56 | 321 | 2.6 | 7.0 | 0.00 | 0.00 | 0.00 | 73 | 1021.2 |
| 20260507044036 | 57 | 46 | 2.6 | 12.2 | 0.00 | 0.00 | 0.00 | 73 | 1021.2 |
| 20260507043534 | 57 | 340 | 2.6 | 12.2 | 0.00 | 0.00 | 0.00 | 73 | 1021.2 |
| 20260507043035 | 57 | 298 | 2.6 | 11.3 | 0.00 | 0.00 | 0.00 | 73 | 1021.1 |
| 20260507042536 | 57 | 352 | 3.5 | 11.3 | 0.00 | 0.00 | 0.00 | 73 | 1021.0 |
| 20260507042035 | 57 | 26 | 2.6 | 10.4 | 0.00 | 0.00 | 0.00 | 73 | 1020.9 |
| 20260507041553 | 57 | 17 | 5.2 | 10.4 | 0.00 | 0.00 | 0.00 | 72 | 1020.9 |
| 20260507041038 | 57 | 321 | 1.7 | 8.7 | 0.00 | 0.00 | 0.00 | 72 | 1021.0 |
| 20260507040536 | 57 | 42 | 3.5 | 8.7 | 0.00 | 0.00 | 0.00 | 72 | 1020.9 |
| 20260507040051 | 58 | 312 | 2.6 | 8.7 | 0.00 | 0.00 | 0.00 | 72 | 1020.9 |
| 20260507035535 | 58 | 29 | 4.3 | 9.6 | 0.00 | 0.00 | 0.00 | 72 | 1020.8 |
| 20260507035035 | 58 | 344 | 4.3 | 9.6 | 0.00 | 0.00 | 0.00 | 71 | 1020.7 |
| 20260507034539 | 58 | 349 | 2.6 | 7.8 | 0.00 | 0.00 | 0.00 | 71 | 1020.7 |
| 20260507034035 | 58 | 318 | 1.7 | 7.8 | 0.00 | 0.00 | 0.00 | 71 | 1020.7 |
| 20260507033538 | 58 | 343 | 2.6 | 7.8 | 0.00 | 0.00 | 0.00 | 71 | 1020.6 |
| 20260507033044 | 59 | 5 | 1.7 | 6.1 | 0.00 | 0.00 | 0.00 | 71 | 1020.6 |
| 20260507032535 | 59 | 298 | 2.6 | 9.6 | 0.00 | 0.00 | 0.00 | 71 | 1020.4 |
| 20260507032034 | 59 | 319 | 2.6 | 9.6 | 0.00 | 0.00 | 0.00 | 71 | 1020.4 |
| 20260507031538 | 59 | 5 | 3.5 | 8.7 | 0.00 | 0.00 | 0.00 | 71 | 1020.3 |
| 20260507031035 | 59 | 348 | 2.6 | 8.7 | 0.00 | 0.00 | 0.00 | 70 | 1020.3 |
| 20260507030535 | 59 | 306 | 3.5 | 8.7 | 0.00 | 0.00 | 0.00 | 70 | 1020.1 |
| 20260507030049 | 60 | 39 | 3.5 | 7.0 | 0.00 | 0.00 | 0.00 | 70 | 1020.0 |
| 20260507025534 | 60 | 352 | 2.6 | 7.0 | 0.00 | 0.00 | 0.00 | 70 | 1020.0 |
| 20260507025035 | 60 | 351 | 2.6 | 7.0 | 0.00 | 0.00 | 0.00 | 70 | 1020.0 |
| 20260507024542 | 60 | 350 | 1.7 | 7.0 | 0.00 | 0.00 | 0.00 | 70 | 1019.9 |
| 20260507024036 | 61 | 290 | 1.7 | 7.0 | 0.00 | 0.00 | 0.00 | 69 | 1019.8 |
| 20260507023535 | 61 | 335 | 2.6 | 6.1 | 0.00 | 0.00 | 0.00 | 69 | 1019.8 |
| 20260507023046 | 61 | 305 | 1.7 | 5.2 | 0.00 | 0.00 | 0.00 | 69 | 1019.9 |
| 20260507022535 | 61 | 360 | 1.7 | 5.2 | 0.00 | 0.00 | 0.00 | 69 | 1019.8 |
| 20260507022038 | 62 | 5 | 2.6 | 7.8 | 0.00 | 0.00 | 0.00 | 68 | 1019.7 |
| 20260507021545 | 62 | 289 | 3.5 | 7.8 | 0.00 | 0.00 | 0.00 | 68 | 1019.8 |
| 20260507021035 | 62 | 11 | 1.7 | 5.2 | 0.00 | 0.00 | 0.00 | 67 | 1019.8 |
| 20260507020536 | 63 | 352 | 1.7 | 5.2 | 0.00 | 0.00 | 0.00 | 67 | 1019.8 |
| 20260507020047 | 63 | 309 | 0.9 | 4.3 | 0.00 | 0.00 | 0.00 | 68 | 1019.8 |
| 20260507015534 | 63 | 352 | 1.7 | 5.2 | 0.00 | 0.00 | 0.00 | 68 | 1019.8 |
| 20260507015035 | 63 | 13 | 0.9 | 5.2 | 0.00 | 0.00 | 0.00 | 67 | 1019.8 |
| 20260507014558 | 63 | 360 | 0.9 | 7.0 | 0.00 | 0.00 | 0.00 | 67 | 1019.9 |
| 20260507014035 | 63 | 332 | 2.6 | 7.0 | 0.00 | 0.00 | 0.00 | 67 | 1019.9 |
| 20260507013535 | 64 | 27 | 3.5 | 9.6 | 0.00 | 0.00 | 0.00 | 66 | 1019.9 |
| 20260507013108 | 64 | 10 | 3.5 | 9.6 | 0.00 | 0.00 | 0.00 | 67 | 1020.0 |
| 20260507012535 | 64 | 314 | 0.9 | 8.7 | 0.00 | 0.00 | 0.00 | 67 | 1019.9 |
| 20260507012035 | 64 | 341 | 1.7 | 12.2 | 0.00 | 0.00 | 0.00 | 66 | 1019.9 |
| 20260507011545 | 64 | 350 | 2.6 | 12.2 | 0.00 | 0.00 | 0.00 | 65 | 1019.9 |
| 20260507011036 | 65 | 290 | 4.3 | 10.4 | 0.00 | 0.00 | 0.00 | 64 | 1020.0 |
| 20260507010535 | 65 | 352 | 3.5 | 13.0 | 0.00 | 0.00 | 0.00 | 64 | 1019.8 |
| 20260507010044 | 65 | 16 | 5.2 | 13.0 | 0.00 | 0.00 | 0.00 | 64 | 1019.8 |
| 20260507005535 | 66 | 5 | 3.5 | 10.4 | 0.00 | 0.00 | 0.00 | 64 | 1019.9 |
| 20260507005034 | 66 | 320 | 2.6 | 10.4 | 0.00 | 0.00 | 0.00 | 64 | 1019.9 |
| 20260507004550 | 65 | 334 | 2.6 | 7.8 | 0.00 | 0.00 | 0.00 | 64 | 1019.8 |
| 20260507004035 | 65 | 22 | 2.6 | 8.7 | 0.00 | 0.00 | 0.00 | 65 | 1019.8 |
| 20260507003535 | 65 | 281 | 3.5 | 8.7 | 0.00 | 0.00 | 0.00 | 64 | 1019.8 |
| 20260507003044 | 66 | 334 | 2.6 | 9.6 | 0.00 | 0.00 | 0.00 | 64 | 1019.8 |
| 20260507002536 | 66 | 332 | 3.5 | 9.6 | 0.00 | 0.00 | 0.00 | 63 | 1019.7 |
| 20260507002036 | 67 | 24 | 2.6 | 9.6 | 0.00 | 0.00 | 0.00 | 63 | 1019.7 |
| 20260507001604 | 66 | 26 | 3.5 | 9.6 | 0.00 | 0.00 | 0.00 | 63 | 1019.6 |
| 20260507001037 | 67 | 344 | 4.3 | 8.7 | 0.00 | 0.00 | 0.00 | 63 | 1019.7 |
| 20260507000537 | 67 | 17 | 0.9 | 7.8 | 0.00 | 0.00 | 0.00 | 64 | 1019.7 |
| 20260507000049 | 67 | 316 | 2.6 | 7.8 | 0.00 | 0.00 | 0.00 | 65 | 1019.6 |
| 20260506235537 | 67 | 325 | 2.6 | 7.8 | 0.00 | 0.00 | 0.00 | 66 | 1019.7 |
| 20260506235035 | 67 | 326 | 2.6 | 7.8 | 0.00 | 0.00 | 0.00 | 65 | 1019.5 |
| 20260506234546 | 68 | 30 | 3.5 | 7.0 | 0.00 | 0.00 | 0.00 | 64 | 1019.6 |
| 20260506234041 | 68 | 348 | 2.6 | 7.0 | 0.00 | 0.00 | 0.00 | 62 | 1019.6 |
| 20260506233537 | 69 | 319 | 1.7 | 6.1 | 0.00 | 0.00 | 0.00 | 63 | 1019.5 |
| 20260506233047 | 69 | 311 | 1.7 | 7.0 | 0.00 | 0.00 | 0.00 | 63 | 1019.6 |
| 20260506232535 | 69 | 336 | 2.6 | 7.0 | 0.00 | 0.00 | 0.00 | 62 | 1019.5 |
| 20260506232035 | 70 | 352 | 2.6 | 5.2 | 0.00 | 0.00 | 0.00 | 63 | 1019.6 |
| 20260506231546 | 70 | 323 | 0.9 | 4.3 | 0.00 | 0.00 | 0.00 | 63 | 1019.5 |
| 20260506231035 | 69 | 119 | 1.7 | 5.2 | 0.00 | 0.00 | 0.00 | 62 | 1019.6 |
| 20260506230535 | 69 | 251 | 1.7 | 5.2 | 0.00 | 0.00 | 0.00 | 62 | 1019.5 |
| 20260506230042 | 69 | 5 | 2.6 | 4.3 | 0.00 | 0.00 | 0.00 | 61 | 1019.6 |
| 20260506225535 | 70 | 64 | 0.9 | 3.5 | 0.00 | 0.00 | 0.00 | 61 | 1019.6 |
| 20260506225039 | 69 | 10 | 0.9 | 2.6 | 0.00 | 0.00 | 0.00 | 61 | 1019.7 |
| 20260506224550 | 70 | 340 | 0.9 | 3.5 | 0.00 | 0.00 | 0.00 | 61 | 1019.7 |
| 20260506224034 | 69 | 168 | 0.9 | 3.5 | 0.00 | 0.00 | 0.00 | 60 | 1019.8 |
| 20260506223535 | 69 | 213 | 0.0 | 1.7 | 0.00 | 0.00 | 0.00 | 61 | 1019.8 |
| 20260506223102 | 68 | 328 | 0.0 | 2.6 | 0.00 | 0.00 | 0.00 | 63 | 1019.9 |
| 20260506222535 | 68 | 215 | 1.7 | 2.6 | 0.00 | 0.00 | 0.00 | 62 | 1020.0 |
| 20260506222036 | 69 | 241 | 0.9 | 2.6 | 0.00 | 0.00 | 0.00 | 61 | 1019.9 |
| 20260506221545 | 69 | 15 | 0.9 | 3.5 | 0.00 | 0.00 | 0.00 | 62 | 1019.9 |
| 20260506221035 | 69 | 309 | 0.9 | 3.5 | 0.00 | 0.00 | 0.00 | 62 | 1020.0 |
| 20260506220535 | 68 | 360 | 1.7 | 4.3 | 0.00 | 0.00 | 0.00 | 64 | 1020.1 |
| 20260506220045 | 66 | 86 | 1.7 | 5.2 | 0.00 | 0.00 | 0.00 | 65 | 1020.2 |
| 20260506215535 | 67 | 325 | 2.6 | 5.2 | 0.00 | 0.00 | 0.00 | 66 | 1020.2 |
| 20260506215035 | 67 | 316 | 1.7 | 4.3 | 0.00 | 0.00 | 0.00 | 66 | 1020.2 |
| 20260506214542 | 66 | 13 | 0.9 | 2.6 | 0.00 | 0.00 | 0.00 | 66 | 1020.1 |
| 20260506214034 | 66 | 55 | 0.9 | 2.6 | 0.00 | 0.00 | 0.00 | 65 | 1020.0 |
| 20260506213534 | 67 | 200 | 0.9 | 5.2 | 0.00 | 0.00 | 0.00 | 64 | 1020.1 |
| 20260506213042 | 68 | 324 | 0.9 | 5.2 | 0.00 | 0.00 | 0.00 | 66 | 1020.1 |
| 20260506212535 | 68 | 263 | 0.9 | 4.3 | 0.00 | 0.00 | 0.00 | 65 | 1020.2 |
| 20260506212036 | 67 | 293 | 1.7 | 4.3 | 0.00 | 0.00 | 0.00 | 65 | 1020.3 |
| 20260506211547 | 67 | 292 | 2.6 | 4.3 | 0.00 | 0.00 | 0.00 | 64 | 1020.3 |
| 20260506211036 | 68 | 340 | 0.9 | 1.7 | 0.00 | 0.00 | 0.00 | 63 | 1020.4 |
| 20260506210536 | 67 | 69 | 0.9 | 2.6 | 0.00 | 0.00 | 0.00 | 67 | 1020.4 |
| 20260506210047 | 67 | 167 | 0.0 | 2.6 | 0.00 | 0.00 | 0.00 | 67 | 1020.5 |
| 20260506205534 | 67 | 133 | 0.9 | 2.6 | 0.00 | 0.00 | 0.00 | 67 | 1020.5 |
| 20260506205034 | 66 | 76 | 0.9 | 2.6 | 0.00 | 0.00 | 0.00 | 67 | 1020.5 |
| 20260506204545 | 66 | 31 | 0.9 | 2.6 | 0.00 | 0.00 | 0.00 | 67 | 1020.6 |
| 20260506204034 | 64 | 159 | 0.0 | 2.6 | 0.00 | 0.00 | 0.00 | 69 | 1020.5 |
| 20260506203537 | 65 | 99 | 0.9 | 3.5 | 0.00 | 0.00 | 0.00 | 68 | 1020.6 |
| 20260506203047 | 65 | 83 | 0.9 | 3.5 | 0.00 | 0.00 | 0.00 | 70 | 1020.5 |
| 20260506202534 | 64 | 117 | 0.9 | 3.5 | 0.00 | 0.00 | 0.00 | 69 | 1020.5 |
| 20260506202037 | 64 | 360 | 0.0 | 2.6 | 0.00 | 0.00 | 0.00 | 72 | 1020.5 |
| 20260506201545 | 63 | 127 | 0.9 | 2.6 | 0.00 | 0.00 | 0.00 | 70 | 1020.4 |
| 20260506201050 | 63 | 191 | 0.9 | 3.5 | 0.00 | 0.00 | 0.00 | 72 | 1020.5 |
| 20260506200535 | 64 | 57 | 0.9 | 3.5 | 0.00 | 0.00 | 0.00 | 71 | 1020.6 |
| 20260506195535 | 63 | 22 | 0.0 | 2.6 | 0.00 | 0.00 | 0.00 | 70 | 1020.7 |
| 20260506195034 | 63 | 23 | 0.9 | 2.6 | 0.00 | 0.00 | 0.00 | 71 | 1020.8 |
| 20260506194541 | 62 | 119 | 0.9 | 2.6 | 0.00 | 0.00 | 0.00 | 73 | 1020.8 |
| 20260506194035 | 61 | 321 | 0.9 | 2.6 | 0.00 | 0.00 | 0.00 | 74 | 1020.9 |
| 20260506193538 | 61 | 335 | 0.9 | 1.7 | 0.00 | 0.00 | 0.00 | 74 | 1020.9 |
| 20260506193041 | 61 | 71 | 0.9 | 2.6 | 0.00 | 0.00 | 0.00 | 74 | 1020.9 |
| 20260506192535 | 61 | 19 | 0.9 | 3.5 | 0.00 | 0.00 | 0.00 | 75 | 1020.9 |
| 20260506192037 | 61 | 5 | 0.9 | 3.5 | 0.00 | 0.00 | 0.00 | 75 | 1020.9 |
| 20260506191548 | 61 | 352 | 0.9 | 2.6 | 0.00 | 0.00 | 0.00 | 74 | 1020.9 |
| 20260506191035 | 61 | 346 | 0.9 | 2.6 | 0.00 | 0.00 | 0.00 | 74 | 1020.8 |
| 20260506190534 | 61 | 140 | 0.9 | 1.7 | 0.00 | 0.00 | 0.00 | 75 | 1020.8 |
| 20260506190045 | 60 | 110 | 0.9 | 1.7 | 0.00 | 0.00 | 0.00 | 75 | 1020.8 |
| 20260506185535 | 61 | 0 | 0.0 | 2.6 | 0.00 | 0.00 | 0.00 | 75 | 1020.8 |
| 20260506185034 | 61 | 9 | 0.9 | 2.6 | 0.00 | 0.00 | 0.00 | 75 | 1020.8 |
| 20260506184540 | 61 | 261 | 0.0 | 1.7 | 0.00 | 0.00 | 0.00 | 76 | 1020.7 |
| 20260506184036 | 60 | 236 | 0.9 | 1.7 | 0.00 | 0.00 | 0.00 | 76 | 1020.8 |
| 20260506183535 | 61 | 279 | 0.0 | 1.7 | 0.00 | 0.00 | 0.00 | 74 | 1020.8 |
| 20260506183047 | 61 | 168 | 0.9 | 2.6 | 0.00 | 0.00 | 0.00 | 75 | 1020.7 |
| 20260506182534 | 60 | 172 | 0.9 | 2.6 | 0.00 | 0.00 | 0.00 | 75 | 1020.7 |
| 20260506182034 | 60 | 126 | 0.9 | 2.6 | 0.00 | 0.00 | 0.00 | 75 | 1020.7 |
| 20260506181545 | 60 | 257 | 0.9 | 2.6 | 0.00 | 0.00 | 0.00 | 76 | 1020.8 |
| 20260506181035 | 60 | 256 | 0.0 | 1.7 | 0.00 | 0.00 | 0.00 | 76 | 1020.8 |
| 20260506180536 | 59 | 0 | 0.9 | 1.7 | 0.00 | 0.00 | 0.00 | 75 | 1020.8 |
| 20260506180052 | 60 | 139 | 0.0 | 1.7 | 0.00 | 0.00 | 0.00 | 76 | 1020.8 |
| 20260506175535 | 59 | 156 | 0.0 | 1.7 | 0.00 | 0.00 | 0.00 | 77 | 1020.7 |
| 20260506175034 | 59 | 0 | 0.0 | 1.7 | 0.00 | 0.00 | 0.00 | 77 | 1020.7 |
| 20260506174543 | 59 | 0 | 0.0 | 1.7 | 0.00 | 0.00 | 0.00 | 77 | 1020.9 |
| 20260506174037 | 58 | 69 | 0.0 | 1.7 | 0.00 | 0.00 | 0.00 | 77 | 1020.7 |
| 20260506173535 | 58 | 0 | 0.0 | 1.7 | 0.00 | 0.00 | 0.00 | 77 | 1020.6 |
| 20260506173041 | 59 | 360 | 0.9 | 2.6 | 0.00 | 0.00 | 0.00 | 77 | 1020.6 |
| 20260506172535 | 59 | 0 | 0.0 | 2.6 | 0.00 | 0.00 | 0.00 | 76 | 1020.6 |
| 20260506172034 | 59 | 144 | 1.7 | 2.6 | 0.00 | 0.00 | 0.00 | 76 | 1020.5 |
| 20260506171550 | 58 | 128 | 0.9 | 1.7 | 0.00 | 0.00 | 0.00 | 77 | 1020.5 |
| 20260506171034 | 58 | 25 | 0.9 | 1.7 | 0.00 | 0.00 | 0.00 | 77 | 1020.5 |
| 20260506170538 | 58 | 0 | 0.0 | 1.7 | 0.00 | 0.00 | 0.00 | 77 | 1020.5 |
| 20260506170042 | 59 | 333 | 0.0 | 1.7 | 0.00 | 0.00 | 0.00 | 78 | 1020.5 |
| 20260506165537 | 58 | 83 | 0.0 | 2.6 | 0.00 | 0.00 | 0.00 | 78 | 1020.4 |
| 20260506165035 | 58 | 333 | 0.0 | 2.6 | 0.00 | 0.00 | 0.00 | 78 | 1020.6 |
| 20260506164539 | 58 | 348 | 0.0 | 1.7 | 0.00 | 0.00 | 0.00 | 78 | 1020.6 |
| 20260506164035 | 58 | 331 | 0.9 | 2.6 | 0.00 | 0.00 | 0.00 | 79 | 1020.6 |
| 20260506163535 | 57 | 352 | 0.0 | 2.6 | 0.00 | 0.00 | 0.00 | 78 | 1020.6 |
| 20260506163050 | 57 | 5 | 0.9 | 1.7 | 0.00 | 0.00 | 0.00 | 78 | 1020.6 |
| 20260506162534 | 57 | 320 | 0.9 | 1.7 | 0.00 | 0.00 | 0.00 | 79 | 1020.6 |
| 20260506162036 | 57 | 340 | 0.0 | 1.7 | 0.00 | 0.00 | 0.00 | 79 | 1020.6 |
| 20260506161553 | 58 | 60 | 0.0 | 1.7 | 0.00 | 0.00 | 0.00 | 78 | 1020.4 |
| 20260506161038 | 57 | 0 | 0.0 | 1.7 | 0.00 | 0.00 | 0.00 | 78 | 1020.4 |
| 20260506160538 | 57 | 26 | 0.0 | 1.7 | 0.00 | 0.00 | 0.00 | 79 | 1020.4 |
| 20260506160046 | 57 | 325 | 0.9 | 1.7 | 0.00 | 0.00 | 0.00 | 79 | 1020.4 |
| 20260506155537 | 57 | 272 | 0.0 | 1.7 | 0.00 | 0.00 | 0.00 | 79 | 1020.1 |
| 20260506155036 | 57 | 16 | 0.0 | 2.6 | 0.00 | 0.00 | 0.00 | 80 | 1020.1 |
| 20260506154543 | 57 | 49 | 0.9 | 2.6 | 0.00 | 0.00 | 0.00 | 78 | 1019.9 |
| 20260506154035 | 57 | 81 | 0.0 | 1.7 | 0.00 | 0.00 | 0.00 | 80 | 1019.8 |
| 20260506153536 | 57 | 182 | 0.0 | 2.6 | 0.00 | 0.00 | 0.00 | 80 | 1019.9 |
| 20260506153041 | 56 | 0 | 0.0 | 2.6 | 0.00 | 0.00 | 0.00 | 80 | 1020.0 |
| 20260506152536 | 56 | 90 | 0.9 | 1.7 | 0.00 | 0.00 | 0.00 | 81 | 1020.3 |
| 20260506152036 | 56 | 19 | 0.9 | 2.6 | 0.00 | 0.00 | 0.00 | 81 | 1020.4 |
| 20260506151547 | 56 | 352 | 0.9 | 3.5 | 0.00 | 0.00 | 0.00 | 81 | 1020.5 |
| 20260506151035 | 56 | 40 | 0.9 | 5.2 | 0.00 | 0.00 | 0.00 | 81 | 1020.6 |
| 20260506150535 | 56 | 26 | 1.7 | 5.2 | 0.00 | 0.00 | 0.00 | 81 | 1020.5 |
| 20260506150047 | 56 | 296 | 0.9 | 7.0 | 0.00 | 0.00 | 0.00 | 81 | 1020.6 |
| 20260506145536 | 56 | 13 | 1.7 | 7.0 | 0.00 | 0.00 | 0.00 | 81 | 1020.5 |
| 20260506145035 | 56 | 321 | 2.6 | 7.0 | 0.00 | 0.00 | 0.00 | 81 | 1020.5 |
| 20260506144540 | 56 | 318 | 1.7 | 4.3 | 0.00 | 0.00 | 0.00 | 81 | 1020.3 |
| 20260506144035 | 56 | 5 | 0.9 | 4.3 | 0.00 | 0.00 | 0.00 | 81 | 1020.1 |
| 20260506143535 | 56 | 349 | 1.7 | 4.3 | 0.00 | 0.00 | 0.00 | 81 | 1020.3 |
| 20260506143051 | 56 | 360 | 1.7 | 4.3 | 0.00 | 0.00 | 0.00 | 81 | 1020.3 |
| 20260506142536 | 56 | 329 | 0.9 | 2.6 | 0.00 | 0.00 | 0.00 | 81 | 1020.1 |
| 20260506142036 | 56 | 315 | 0.9 | 1.7 | 0.00 | 0.00 | 0.00 | 81 | 1020.0 |
| 20260506141542 | 56 | 336 | 0.0 | 2.6 | 0.00 | 0.00 | 0.00 | 81 | 1019.8 |
| 20260506141036 | 56 | 352 | 0.0 | 2.6 | 0.00 | 0.00 | 0.00 | 82 | 1019.7 |
| 20260506140536 | 56 | 300 | 0.9 | 2.6 | 0.00 | 0.00 | 0.00 | 81 | 1019.6 |
| 20260506140050 | 56 | 0 | 0.9 | 2.6 | 0.00 | 0.00 | 0.00 | 81 | 1019.7 |
| 20260506135535 | 56 | 22 | 0.0 | 1.7 | 0.00 | 0.00 | 0.00 | 82 | 1019.7 |
| 20260506135035 | 56 | 0 | 0.0 | 4.3 | 0.00 | 0.00 | 0.00 | 82 | 1019.7 |
| 20260506134610 | 56 | 352 | 0.9 | 4.3 | 0.00 | 0.00 | 0.00 | 82 | 1019.6 |
| 20260506134035 | 56 | 311 | 1.7 | 2.6 | 0.00 | 0.00 | 0.00 | 82 | 1019.5 |
| 20260506133535 | 56 | 334 | 0.0 | 1.7 | 0.00 | 0.00 | 0.00 | 82 | 1019.5 |
| 20260506133041 | 56 | 17 | 0.0 | 1.7 | 0.00 | 0.00 | 0.00 | 82 | 1019.6 |
| 20260506132535 | 56 | 324 | 0.9 | 1.7 | 0.00 | 0.00 | 0.00 | 83 | 1019.5 |
| 20260506132035 | 56 | 0 | 0.0 | 1.7 | 0.00 | 0.00 | 0.00 | 82 | 1019.4 |
| 20260506131604 | 56 | 360 | 0.0 | 1.7 | 0.00 | 0.00 | 0.00 | 82 | 1019.4 |
| 20260506131035 | 56 | 0 | 0.0 | 1.7 | 0.00 | 0.00 | 0.00 | 82 | 1019.2 |
| 20260506130535 | 56 | 0 | 0.0 | 0.0 | 0.00 | 0.00 | 0.00 | 82 | 1019.1 |
| 20260506130045 | 56 | 0 | 0.0 | 0.0 | 0.00 | 0.00 | 0.00 | 82 | 1019.1 |
| 20260506125535 | 56 | 0 | 0.0 | 0.0 | 0.00 | 0.00 | 0.00 | 82 | 1019.1 |
| 20260506125036 | 56 | 0 | 0.0 | 0.0 | 0.00 | 0.00 | 0.00 | 82 | 1018.9 |
| 20260506124540 | 56 | 0 | 0.0 | 0.0 | 0.00 | 0.00 | 0.00 | 82 | 1018.9 |
| 20260506124037 | 56 | 0 | 0.0 | 1.7 | 0.00 | 0.00 | 0.00 | 82 | 1018.9 |
| 20260506123537 | 56 | 0 | 0.0 | 1.7 | 0.00 | 0.00 | 0.00 | 82 | 1018.9 |
| 20260506123048 | 56 | 9 | 0.0 | 1.7 | 0.00 | 0.00 | 0.00 | 81 | 1018.9 |
| 20260506122536 | 56 | 0 | 0.0 | 1.7 | 0.00 | 0.00 | 0.00 | 82 | 1018.9 |
| 20260506122036 | 56 | 0 | 0.0 | 1.7 | 0.00 | 0.00 | 0.00 | 81 | 1018.9 |
| 20260506121545 | 56 | 0 | 0.0 | 1.7 | 0.00 | 0.00 | 0.00 | 82 | 1018.9 |
| 20260506121035 | 56 | 0 | 0.0 | 2.6 | 0.00 | 0.00 | 0.00 | 81 | 1019.0 |
| 20260506120535 | 56 | 343 | 0.9 | 2.6 | 0.00 | 0.00 | 0.00 | 81 | 1019.0 |
| 20260506120047 | 56 | 5 | 0.0 | 1.7 | 0.00 | 0.00 | 0.00 | 81 | 1018.9 |
| 20260506115537 | 56 | 0 | 0.0 | 1.7 | 0.00 | 0.00 | 0.00 | 81 | 1018.9 |
| 20260506115036 | 56 | 13 | 0.9 | 1.7 | 0.00 | 0.00 | 0.00 | 81 | 1018.9 |
| 20260506114548 | 56 | 0 | 0.0 | 1.7 | 0.00 | 0.00 | 0.00 | 81 | 1018.8 |
| 20260506114036 | 56 | 25 | 0.0 | 3.5 | 0.00 | 0.00 | 0.00 | 81 | 1018.7 |
| 20260506113537 | 56 | 288 | 0.9 | 3.5 | 0.00 | 0.00 | 0.00 | 81 | 1018.6 |
| 20260506113043 | 56 | 31 | 0.9 | 3.5 | 0.00 | 0.00 | 0.00 | 81 | 1018.6 |
| 20260506112536 | 56 | 352 | 0.9 | 3.5 | 0.00 | 0.00 | 0.00 | 81 | 1018.7 |
| 20260506112035 | 56 | 340 | 0.9 | 3.5 | 0.00 | 0.00 | 0.00 | 81 | 1018.6 |
| 20260506111602 | 56 | 342 | 0.0 | 4.3 | 0.00 | 0.00 | 0.00 | 81 | 1018.5 |
| 20260506111035 | 56 | 274 | 0.0 | 4.3 | 0.00 | 0.00 | 0.00 | 81 | 1018.5 |
| 20260506110537 | 56 | 331 | 1.7 | 4.3 | 0.00 | 0.00 | 0.00 | 80 | 1018.5 |
| 20260506110045 | 56 | 347 | 0.9 | 2.6 | 0.00 | 0.00 | 0.00 | 80 | 1018.4 |
| 20260506105536 | 57 | 333 | 0.9 | 2.6 | 0.00 | 0.00 | 0.00 | 80 | 1018.3 |
| 20260506105036 | 57 | 0 | 0.0 | 2.6 | 0.00 | 0.00 | 0.00 | 80 | 1018.2 |
| 20260506104544 | 57 | 279 | 0.9 | 2.6 | 0.00 | 0.00 | 0.00 | 80 | 1018.2 |
| 20260506104035 | 57 | 333 | 0.9 | 3.5 | 0.00 | 0.00 | 0.00 | 80 | 1018.0 |
| 20260506103535 | 57 | 344 | 0.9 | 3.5 | 0.00 | 0.00 | 0.00 | 79 | 1017.9 |
| 20260506103041 | 57 | 10 | 0.9 | 2.6 | 0.00 | 0.00 | 0.00 | 79 | 1018.0 |
| 20260506102535 | 57 | 5 | 0.0 | 1.7 | 0.00 | 0.00 | 0.00 | 79 | 1018.0 |
| 20260506102037 | 57 | 340 | 0.9 | 2.6 | 0.00 | 0.00 | 0.00 | 79 | 1017.8 |
| 20260506101549 | 57 | 0 | 0.9 | 2.6 | 0.00 | 0.00 | 0.00 | 79 | 1017.7 |
| 20260506101036 | 57 | 0 | 0.0 | 2.6 | 0.00 | 0.00 | 0.00 | 79 | 1017.6 |
| 20260506100536 | 57 | 24 | 0.9 | 2.6 | 0.00 | 0.00 | 0.00 | 79 | 1017.6 |
| 20260506100038 | 57 | 9 | 0.0 | 2.6 | 0.00 | 0.00 | 0.00 | 79 | 1017.5 |
| 20260506095536 | 57 | 10 | 0.0 | 2.6 | 0.00 | 0.00 | 0.00 | 79 | 1017.6 |
| 20260506095040 | 57 | 5 | 0.0 | 3.5 | 0.00 | 0.00 | 0.00 | 79 | 1017.4 |
| 20260506094547 | 57 | 348 | 0.9 | 3.5 | 0.00 | 0.00 | 0.00 | 79 | 1017.5 |
| 20260506094039 | 57 | 15 | 0.0 | 1.7 | 0.00 | 0.00 | 0.00 | 79 | 1017.4 |
| 20260506093535 | 57 | 338 | 0.0 | 1.7 | 0.00 | 0.00 | 0.00 | 79 | 1017.4 |
| 20260506093052 | 57 | 335 | 0.0 | 1.7 | 0.00 | 0.00 | 0.00 | 79 | 1017.3 |
| 20260506092535 | 57 | 333 | 0.0 | 2.6 | 0.00 | 0.00 | 0.00 | 79 | 1017.3 |
| 20260506092037 | 57 | 345 | 0.9 | 2.6 | 0.00 | 0.00 | 0.00 | 79 | 1017.2 |
| 20260506091545 | 57 | 12 | 0.9 | 2.6 | 0.00 | 0.00 | 0.00 | 78 | 1017.4 |
| 20260506091036 | 57 | 348 | 0.9 | 4.3 | 0.00 | 0.00 | 0.00 | 78 | 1017.4 |
| 20260506090536 | 57 | 19 | 1.7 | 4.3 | 0.00 | 0.00 | 0.00 | 78 | 1017.2 |
| 20260506090050 | 57 | 350 | 1.7 | 3.5 | 0.00 | 0.00 | 0.00 | 78 | 1017.2 |
| 20260506085535 | 57 | 323 | 0.9 | 3.5 | 0.00 | 0.00 | 0.00 | 78 | 1017.3 |